contact:dominique.lefevre@mio.osupytheas.fr, maurice.libes@osupytheas.fr, didier.mallarino@osupytheas.fr
Project:EMSO http://www.emso-fr.org/EMSO-France
Depth: 2436.0 m
Title:EMSO Ligure Ouest : Data MII capteur CSTAR
DateTime,Latitude,Longitude,Instrument_Serial,Reference_Counts,Signal_Counts,Corrected_Signal_raw_counts,Calculated_Beam_c_inverse_meters,Internal_thermistor_counts
DateTime,Latitude,Longitude,Instrument_Serial,Reference_Counts,Signal_Counts,Corrected_Signal_raw_counts,Calculated_Beam_c_inverse_meters,Internal_thermistor_counts
2020-03-15T00:02:50,42.805,6.029,CST-1368DR,6622,9286,15219,0.103,551
2020-03-15T00:05:52,42.805,6.029,CST-1368DR,6622,9287,15219,0.103,551
2020-03-15T00:08:54,42.805,6.029,CST-1368DR,6622,9286,15218,0.103,551
2020-03-15T00:11:55,42.805,6.029,CST-1368DR,6622,9285,15216,0.104,551
2020-03-15T00:14:57,42.805,6.029,CST-1368DR,6622,9286,15218,0.103,551
2020-03-15T00:17:59,42.805,6.029,CST-1368DR,6622,9287,15220,0.103,551
2020-03-15T00:21:01,42.805,6.029,CST-1368DR,6622,9282,15212,0.105,551
2020-03-15T00:24:02,42.805,6.029,CST-1368DR,6622,9286,15218,0.103,551
2020-03-15T00:27:04,42.805,6.029,CST-1368DR,6622,9286,15219,0.103,551
2020-03-15T00:30:06,42.805,6.029,CST-1368DR,6622,9286,15218,0.103,551
2020-03-15T00:33:07,42.805,6.029,CST-1368DR,6622,9288,15221,0.102,551
2020-03-15T00:36:09,42.805,6.029,CST-1368DR,6622,9286,15219,0.103,551
2020-03-15T00:39:11,42.805,6.029,CST-1368DR,6622,9286,15219,0.103,551
2020-03-15T00:42:13,42.805,6.029,CST-1368DR,6622,9287,15220,0.103,551
2020-03-15T00:45:14,42.805,6.029,CST-1368DR,6622,9287,15219,0.103,550
2020-03-15T00:48:16,42.805,6.029,CST-1368DR,6622,9286,15218,0.103,551
2020-03-15T00:51:18,42.805,6.029,CST-1368DR,6622,9281,15210,0.105,551
2020-03-15T00:54:19,42.805,6.029,CST-1368DR,6622,9285,15216,0.104,550
2020-03-15T00:57:21,42.805,6.029,CST-1368DR,6622,9286,15219,0.103,551
2020-03-15T01:00:23,42.805,6.029,CST-1368DR,6622,9286,15218,0.103,551
2020-03-15T01:03:25,42.805,6.029,CST-1368DR,6622,9284,15215,0.104,551
2020-03-15T01:06:27,42.805,6.029,CST-1368DR,6622,9286,15218,0.103,551
2020-03-15T01:09:28,42.805,6.029,CST-1368DR,6622,9286,15219,0.103,551
2020-03-15T01:12:30,42.805,6.029,CST-1368DR,6622,9286,15218,0.103,551
2020-03-15T01:15:32,42.805,6.029,CST-1368DR,6622,9283,15214,0.104,551
2020-03-15T01:18:33,42.805,6.029,CST-1368DR,6622,9286,15218,0.103,551
2020-03-15T01:21:35,42.805,6.029,CST-1368DR,6622,9283,15214,0.104,551
2020-03-15T01:24:37,42.805,6.029,CST-1368DR,6622,9286,15218,0.103,551
2020-03-15T01:27:38,42.805,6.029,CST-1368DR,6622,9285,15217,0.104,551
2020-03-15T01:30:40,42.805,6.029,CST-1368DR,6622,9286,15218,0.103,551
2020-03-15T01:33:42,42.805,6.029,CST-1368DR,6622,9285,15217,0.104,550
2020-03-15T01:36:44,42.805,6.029,CST-1368DR,6622,9286,15218,0.103,551
2020-03-15T01:39:45,42.805,6.029,CST-1368DR,6622,9285,15217,0.104,551
2020-03-15T01:42:47,42.805,6.029,CST-1368DR,6622,9285,15217,0.104,551
2020-03-15T01:45:49,42.805,6.029,CST-1368DR,6622,9286,15218,0.103,551
2020-03-15T01:48:50,42.805,6.029,CST-1368DR,6622,9286,15219,0.103,551
2020-03-15T01:51:52,42.805,6.029,CST-1368DR,6622,9285,15217,0.104,551
2020-03-15T01:54:54,42.805,6.029,CST-1368DR,6622,9286,15218,0.103,551
2020-03-15T01:57:55,42.805,6.029,CST-1368DR,6622,9286,15218,0.103,551
2020-03-15T02:00:57,42.805,6.029,CST-1368DR,6622,9283,15213,0.105,551
2020-03-15T02:03:59,42.805,6.029,CST-1368DR,6622,9283,15213,0.105,551
2020-03-15T02:07:01,42.805,6.029,CST-1368DR,6622,9285,15216,0.104,551
2020-03-15T02:10:02,42.805,6.029,CST-1368DR,6622,9285,15217,0.104,551
2020-03-15T02:13:04,42.805,6.029,CST-1368DR,6622,9285,15217,0.104,550
2020-03-15T02:16:06,42.805,6.029,CST-1368DR,6622,9286,15218,0.103,551
2020-03-15T02:19:07,42.805,6.029,CST-1368DR,6622,9285,15216,0.104,551
2020-03-15T02:22:09,42.805,6.029,CST-1368DR,6622,9284,15214,0.104,551
2020-03-15T02:25:11,42.805,6.029,CST-1368DR,6622,9287,15219,0.103,551
2020-03-15T02:28:12,42.805,6.029,CST-1368DR,6622,9286,15218,0.103,551
2020-03-15T02:31:14,42.805,6.029,CST-1368DR,6622,9286,15218,0.103,551
2020-03-15T02:34:16,42.805,6.029,CST-1368DR,6622,9286,15218,0.103,551
2020-03-15T02:37:18,42.805,6.029,CST-1368DR,6622,9286,15219,0.103,551
2020-03-15T02:40:19,42.805,6.029,CST-1368DR,6622,9285,15216,0.104,551
2020-03-15T02:43:21,42.805,6.029,CST-1368DR,6622,9285,15217,0.104,551
2020-03-15T02:46:23,42.805,6.029,CST-1368DR,6622,9286,15218,0.103,551
2020-03-15T02:49:24,42.805,6.029,CST-1368DR,6622,9286,15218,0.103,551
2020-03-15T02:52:26,42.805,6.029,CST-1368DR,6622,9286,15218,0.103,551
2020-03-15T02:55:28,42.805,6.029,CST-1368DR,6622,9286,15218,0.103,551
2020-03-15T02:58:30,42.805,6.029,CST-1368DR,6622,9282,15212,0.105,551
2020-03-15T03:01:31,42.805,6.029,CST-1368DR,6622,9285,15217,0.104,551
2020-03-15T03:04:33,42.805,6.029,CST-1368DR,6622,9286,15218,0.103,551
2020-03-15T03:07:35,42.805,6.029,CST-1368DR,6622,9284,15214,0.104,550
2020-03-15T03:10:36,42.805,6.029,CST-1368DR,6622,9286,15218,0.103,551
2020-03-15T03:13:38,42.805,6.029,CST-1368DR,6621,9285,15218,0.103,551
2020-03-15T03:16:40,42.805,6.029,CST-1368DR,6621,9286,15221,0.102,551
2020-03-15T03:19:42,42.805,6.029,CST-1368DR,6621,9286,15220,0.103,551
2020-03-15T03:22:43,42.805,6.029,CST-1368DR,6621,9286,15220,0.103,551
2020-03-15T03:25:45,42.805,6.029,CST-1368DR,6621,9286,15220,0.103,551
2020-03-15T03:28:47,42.805,6.029,CST-1368DR,6621,9284,15217,0.104,550
2020-03-15T03:31:48,42.805,6.029,CST-1368DR,6621,9285,15218,0.103,551
2020-03-15T03:34:50,42.805,6.029,CST-1368DR,6621,9286,15221,0.102,551
2020-03-15T03:37:52,42.805,6.029,CST-1368DR,6621,9286,15220,0.103,551
2020-03-15T03:40:54,42.805,6.029,CST-1368DR,6621,9286,15221,0.102,551
2020-03-15T03:43:55,42.805,6.029,CST-1368DR,6621,9286,15221,0.102,551
2020-03-15T03:46:57,42.805,6.029,CST-1368DR,6621,9286,15221,0.102,551
2020-03-15T03:49:59,42.805,6.029,CST-1368DR,6621,9286,15220,0.103,551
2020-03-15T03:53:00,42.805,6.029,CST-1368DR,6621,9283,15215,0.104,551
2020-03-15T03:56:02,42.805,6.029,CST-1368DR,6621,9285,15219,0.103,551
2020-03-15T03:59:04,42.805,6.029,CST-1368DR,6621,9285,15218,0.103,551
2020-03-15T04:02:06,42.805,6.029,CST-1368DR,6621,9283,15216,0.104,551
2020-03-15T04:05:07,42.805,6.029,CST-1368DR,6621,9285,15219,0.103,551
2020-03-15T04:08:09,42.805,6.029,CST-1368DR,6621,9286,15220,0.103,551
2020-03-15T04:11:11,42.805,6.029,CST-1368DR,6621,9286,15221,0.102,551
2020-03-15T04:14:12,42.805,6.029,CST-1368DR,6621,9286,15220,0.103,551
2020-03-15T04:17:14,42.805,6.029,CST-1368DR,6621,9286,15220,0.103,551
2020-03-15T04:20:16,42.805,6.029,CST-1368DR,6621,9284,15218,0.103,551
2020-03-15T04:23:18,42.805,6.029,CST-1368DR,6621,9284,15217,0.104,551
2020-03-15T04:26:19,42.805,6.029,CST-1368DR,6621,9285,15219,0.103,551
2020-03-15T04:29:21,42.805,6.029,CST-1368DR,6621,9285,15219,0.103,551
2020-03-15T04:32:23,42.805,6.029,CST-1368DR,6621,9286,15220,0.103,551
2020-03-15T04:35:24,42.805,6.029,CST-1368DR,6621,9284,15217,0.104,551
2020-03-15T04:38:26,42.805,6.029,CST-1368DR,6621,9285,15218,0.103,551
2020-03-15T04:41:28,42.805,6.029,CST-1368DR,6621,9285,15219,0.103,551
2020-03-15T04:44:30,42.805,6.029,CST-1368DR,6621,9285,15218,0.103,551
2020-03-15T04:47:31,42.805,6.029,CST-1368DR,6621,9285,15219,0.103,551
2020-03-15T04:50:33,42.805,6.029,CST-1368DR,6621,9286,15220,0.103,551
2020-03-15T04:53:35,42.805,6.029,CST-1368DR,6621,9285,15218,0.103,551
2020-03-15T04:56:36,42.805,6.029,CST-1368DR,6621,9285,15219,0.103,551
2020-03-15T04:59:38,42.805,6.029,CST-1368DR,6621,9286,15220,0.103,551
2020-03-15T05:02:40,42.805,6.029,CST-1368DR,6621,9285,15218,0.103,551
2020-03-15T05:05:41,42.805,6.029,CST-1368DR,6621,9285,15219,0.103,551
2020-03-15T05:08:43,42.805,6.029,CST-1368DR,6621,9285,15219,0.103,551
2020-03-15T05:11:45,42.805,6.029,CST-1368DR,6621,9285,15218,0.103,551
2020-03-15T05:14:46,42.805,6.029,CST-1368DR,6621,9286,15220,0.103,551
2020-03-15T05:17:48,42.805,6.029,CST-1368DR,6621,9285,15219,0.103,551
2020-03-15T05:20:50,42.805,6.029,CST-1368DR,6621,9286,15220,0.103,551
2020-03-15T05:23:52,42.805,6.029,CST-1368DR,6621,9285,15218,0.103,551
2020-03-15T05:26:53,42.805,6.029,CST-1368DR,6621,9285,15219,0.103,551
2020-03-15T05:29:55,42.805,6.029,CST-1368DR,6621,9286,15220,0.103,551
2020-03-15T05:32:57,42.805,6.029,CST-1368DR,6621,9285,15219,0.103,551
2020-03-15T05:35:58,42.805,6.029,CST-1368DR,6621,9285,15218,0.103,551
2020-03-15T05:39:00,42.805,6.029,CST-1368DR,6621,9285,15219,0.103,551
2020-03-15T05:42:02,42.805,6.029,CST-1368DR,6621,9284,15216,0.104,551
2020-03-15T05:45:03,42.805,6.029,CST-1368DR,6621,9285,15218,0.103,551
2020-03-15T05:48:05,42.805,6.029,CST-1368DR,6621,9285,15219,0.103,551
2020-03-15T05:51:07,42.805,6.029,CST-1368DR,6621,9285,15218,0.103,551
2020-03-15T05:54:08,42.805,6.029,CST-1368DR,6621,9286,15220,0.103,551
2020-03-15T05:57:10,42.805,6.029,CST-1368DR,6621,9285,15218,0.103,551
2020-03-15T06:00:12,42.805,6.029,CST-1368DR,6621,9285,15219,0.103,551
2020-03-15T06:03:13,42.805,6.029,CST-1368DR,6621,9286,15220,0.103,551
2020-03-15T06:06:15,42.805,6.029,CST-1368DR,6621,9285,15218,0.103,551
2020-03-15T06:09:17,42.805,6.029,CST-1368DR,6621,9285,15218,0.103,551
2020-03-15T06:12:19,42.805,6.029,CST-1368DR,6621,9280,15210,0.105,551
2020-03-15T06:15:20,42.805,6.029,CST-1368DR,6621,9282,15214,0.104,551
2020-03-15T06:18:22,42.805,6.029,CST-1368DR,6621,9285,15218,0.103,551
2020-03-15T06:21:24,42.805,6.029,CST-1368DR,6621,9284,15218,0.103,551
2020-03-15T06:24:25,42.805,6.029,CST-1368DR,6621,9285,15219,0.103,551
2020-03-15T06:27:27,42.805,6.029,CST-1368DR,6621,9285,15219,0.103,551
2020-03-15T06:30:29,42.805,6.029,CST-1368DR,6621,9284,15218,0.103,551
2020-03-15T06:33:30,42.805,6.029,CST-1368DR,6621,9285,15218,0.103,551
2020-03-15T06:36:32,42.805,6.029,CST-1368DR,6621,9285,15218,0.103,551
2020-03-15T06:39:34,42.805,6.029,CST-1368DR,6621,9286,15220,0.103,551
2020-03-15T06:42:36,42.805,6.029,CST-1368DR,6621,9285,15218,0.103,551
2020-03-15T06:45:37,42.805,6.029,CST-1368DR,6621,9286,15220,0.103,551
2020-03-15T06:48:39,42.805,6.029,CST-1368DR,6621,9285,15219,0.103,551
2020-03-15T06:51:41,42.805,6.029,CST-1368DR,6621,9283,15216,0.104,551
2020-03-15T06:54:42,42.805,6.029,CST-1368DR,6621,9284,15218,0.103,551
2020-03-15T06:57:44,42.805,6.029,CST-1368DR,6621,9285,15218,0.103,551
2020-03-15T07:00:46,42.805,6.029,CST-1368DR,6621,9285,15218,0.103,550
2020-03-15T07:03:47,42.805,6.029,CST-1368DR,6621,9285,15218,0.103,551
2020-03-15T07:06:49,42.805,6.029,CST-1368DR,6621,9285,15218,0.103,551
2020-03-15T07:09:51,42.805,6.029,CST-1368DR,6621,9284,15218,0.103,551
2020-03-15T07:12:53,42.805,6.029,CST-1368DR,6621,9285,15219,0.103,551
2020-03-15T07:15:54,42.805,6.029,CST-1368DR,6621,9285,15218,0.103,551
2020-03-15T07:18:56,42.805,6.029,CST-1368DR,6621,9285,15218,0.103,551
2020-03-15T07:21:58,42.805,6.029,CST-1368DR,6621,9284,15216,0.104,551
2020-03-15T07:24:59,42.805,6.029,CST-1368DR,6621,9284,15216,0.104,551
2020-03-15T07:28:01,42.805,6.029,CST-1368DR,6621,9283,15216,0.104,551
2020-03-15T07:31:03,42.805,6.029,CST-1368DR,6620,9283,15218,0.103,551
2020-03-15T07:34:04,42.805,6.029,CST-1368DR,6620,9282,15217,0.104,551
2020-03-15T07:37:06,42.805,6.029,CST-1368DR,6620,9284,15219,0.103,551
2020-03-15T07:40:08,42.805,6.029,CST-1368DR,6620,9283,15217,0.104,551
2020-03-15T07:43:10,42.805,6.029,CST-1368DR,6620,9284,15220,0.103,551
2020-03-15T07:46:11,42.805,6.029,CST-1368DR,6620,9283,15217,0.104,551
2020-03-15T07:49:13,42.805,6.029,CST-1368DR,6620,9283,15218,0.103,551
2020-03-15T07:52:15,42.805,6.029,CST-1368DR,6620,9284,15219,0.103,551
2020-03-15T07:55:16,42.805,6.029,CST-1368DR,6620,9284,15219,0.103,551
2020-03-15T07:58:18,42.805,6.029,CST-1368DR,6620,9282,15216,0.104,551
2020-03-15T08:01:20,42.805,6.029,CST-1368DR,6620,9284,15219,0.103,550
2020-03-15T08:04:21,42.805,6.029,CST-1368DR,6620,9283,15218,0.103,550
2020-03-15T08:07:23,42.805,6.029,CST-1368DR,6620,9282,15217,0.104,551
2020-03-15T08:10:25,42.805,6.029,CST-1368DR,6620,9285,15220,0.103,551
2020-03-15T08:13:26,42.805,6.029,CST-1368DR,6620,9284,15219,0.103,551
2020-03-15T08:16:28,42.805,6.029,CST-1368DR,6620,9285,15221,0.102,551
2020-03-15T08:19:30,42.805,6.029,CST-1368DR,6620,9284,15220,0.103,550
2020-03-15T08:22:31,42.805,6.029,CST-1368DR,6620,9283,15218,0.103,551
2020-03-15T08:25:33,42.805,6.029,CST-1368DR,6620,9284,15219,0.103,551
2020-03-15T08:28:35,42.805,6.029,CST-1368DR,6620,9285,15220,0.103,551
2020-03-15T08:31:37,42.805,6.029,CST-1368DR,6620,9285,15220,0.103,551
2020-03-15T08:34:38,42.805,6.029,CST-1368DR,6620,9285,15220,0.103,551
2020-03-15T08:37:40,42.805,6.029,CST-1368DR,6620,9284,15219,0.103,551
2020-03-15T08:40:42,42.805,6.029,CST-1368DR,6620,9284,15219,0.103,551
2020-03-15T08:43:44,42.805,6.029,CST-1368DR,6620,9283,15218,0.103,551
2020-03-15T08:46:45,42.805,6.029,CST-1368DR,6620,9283,15218,0.103,551
2020-03-15T08:49:47,42.805,6.029,CST-1368DR,6620,9284,15219,0.103,551
2020-03-15T08:52:49,42.805,6.029,CST-1368DR,6620,9281,15215,0.104,551
2020-03-15T08:55:50,42.805,6.029,CST-1368DR,6620,9284,15219,0.103,551
2020-03-15T08:58:52,42.805,6.029,CST-1368DR,6620,9285,15221,0.102,551
2020-03-15T09:01:54,42.805,6.029,CST-1368DR,6620,9284,15220,0.103,550
2020-03-15T09:04:56,42.805,6.029,CST-1368DR,6620,9283,15218,0.103,551
2020-03-15T09:07:57,42.805,6.029,CST-1368DR,6620,9284,15220,0.103,551
2020-03-15T09:10:59,42.805,6.029,CST-1368DR,6620,9283,15218,0.103,551
2020-03-15T09:14:01,42.805,6.029,CST-1368DR,6620,9282,15216,0.104,551
2020-03-15T09:17:02,42.805,6.029,CST-1368DR,6620,9284,15219,0.103,551
2020-03-15T09:20:04,42.805,6.029,CST-1368DR,6620,9283,15218,0.103,551
2020-03-15T09:23:06,42.805,6.029,CST-1368DR,6620,9284,15219,0.103,551
2020-03-15T09:26:07,42.805,6.029,CST-1368DR,6620,9283,15218,0.103,551
2020-03-15T09:29:09,42.805,6.029,CST-1368DR,6620,9284,15219,0.103,551
2020-03-15T09:32:11,42.805,6.029,CST-1368DR,6620,9281,15214,0.104,551
2020-03-15T09:35:12,42.805,6.029,CST-1368DR,6620,9284,15219,0.103,551
2020-03-15T09:38:14,42.805,6.029,CST-1368DR,6620,9284,15219,0.103,551
2020-03-15T09:41:16,42.805,6.029,CST-1368DR,6620,9284,15219,0.103,551
2020-03-15T09:44:17,42.805,6.029,CST-1368DR,6620,9284,15220,0.103,551
2020-03-15T09:47:19,42.805,6.029,CST-1368DR,6620,9283,15217,0.104,551
2020-03-15T09:50:21,42.805,6.029,CST-1368DR,6620,9283,15218,0.103,551
2020-03-15T09:53:23,42.805,6.029,CST-1368DR,6620,9284,15219,0.103,551
2020-03-15T09:56:24,42.805,6.029,CST-1368DR,6620,9283,15218,0.103,551
2020-03-15T09:59:26,42.805,6.029,CST-1368DR,6620,9283,15218,0.103,551
2020-03-15T10:02:28,42.805,6.029,CST-1368DR,6620,9283,15217,0.104,551
2020-03-15T10:05:30,42.805,6.029,CST-1368DR,6620,9283,15218,0.103,551
2020-03-15T10:08:31,42.805,6.029,CST-1368DR,6620,9284,15219,0.103,551
2020-03-15T10:11:33,42.805,6.029,CST-1368DR,6620,9282,15216,0.104,551
2020-03-15T10:14:35,42.805,6.029,CST-1368DR,6620,9284,15219,0.103,551
2020-03-15T10:17:36,42.805,6.029,CST-1368DR,6620,9283,15218,0.103,551
2020-03-15T10:20:38,42.805,6.029,CST-1368DR,6620,9283,15217,0.104,551
2020-03-15T10:23:40,42.805,6.029,CST-1368DR,6620,9283,15218,0.103,551
2020-03-15T10:26:41,42.805,6.029,CST-1368DR,6620,9282,15216,0.104,551
2020-03-15T10:29:43,42.805,6.029,CST-1368DR,6620,9284,15219,0.103,551
2020-03-15T10:32:45,42.805,6.029,CST-1368DR,6620,9280,15213,0.105,551
2020-03-15T10:35:47,42.805,6.029,CST-1368DR,6620,9283,15217,0.104,551
2020-03-15T10:38:48,42.805,6.029,CST-1368DR,6620,9283,15217,0.104,551
2020-03-15T10:41:50,42.805,6.029,CST-1368DR,6620,9283,15217,0.104,551
2020-03-15T10:44:52,42.805,6.029,CST-1368DR,6620,9283,15217,0.104,551
2020-03-15T10:47:53,42.805,6.029,CST-1368DR,6620,9283,15218,0.103,551
2020-03-15T10:50:55,42.805,6.029,CST-1368DR,6620,9283,15218,0.103,551
2020-03-15T10:53:57,42.805,6.029,CST-1368DR,6620,9283,15217,0.104,551
2020-03-15T10:56:58,42.805,6.029,CST-1368DR,6620,9283,15217,0.104,551
2020-03-15T11:00:00,42.805,6.029,CST-1368DR,6620,9279,15210,0.105,551
2020-03-15T11:03:02,42.805,6.029,CST-1368DR,6619,9283,15220,0.103,551
2020-03-15T11:06:03,42.805,6.029,CST-1368DR,6619,9283,15220,0.103,551
2020-03-15T11:09:05,42.805,6.029,CST-1368DR,6620,9283,15218,0.103,551
2020-03-15T11:12:07,42.805,6.029,CST-1368DR,6620,9283,15217,0.104,551
2020-03-15T11:15:08,42.805,6.029,CST-1368DR,6619,9283,15219,0.103,551
2020-03-15T11:18:10,42.805,6.029,CST-1368DR,6620,9283,15217,0.104,551
2020-03-15T11:21:12,42.805,6.029,CST-1368DR,6619,9283,15220,0.103,551
2020-03-15T11:24:14,42.805,6.029,CST-1368DR,6620,9283,15218,0.103,551
2020-03-15T11:27:15,42.805,6.029,CST-1368DR,6619,9283,15220,0.103,551
2020-03-15T11:30:17,42.805,6.029,CST-1368DR,6619,9281,15217,0.104,551
2020-03-15T11:33:19,42.805,6.029,CST-1368DR,6619,9283,15220,0.103,551
2020-03-15T11:36:20,42.805,6.029,CST-1368DR,6620,9284,15220,0.103,551
2020-03-15T11:39:22,42.805,6.029,CST-1368DR,6620,9284,15219,0.103,551
2020-03-15T11:42:24,42.805,6.029,CST-1368DR,6619,9283,15220,0.103,551
2020-03-15T11:45:25,42.805,6.029,CST-1368DR,6619,9283,15220,0.103,551
2020-03-15T11:48:27,42.805,6.029,CST-1368DR,6619,9282,15218,0.103,551
2020-03-15T11:51:29,42.805,6.029,CST-1368DR,6619,9281,15217,0.104,551
2020-03-15T11:54:30,42.805,6.029,CST-1368DR,6619,9283,15219,0.103,551
2020-03-15T11:57:32,42.805,6.029,CST-1368DR,6619,9282,15218,0.103,551
2020-03-15T12:00:34,42.805,6.029,CST-1368DR,6620,9283,15217,0.104,551
2020-03-15T12:03:35,42.805,6.029,CST-1368DR,6620,9282,15217,0.104,551
2020-03-15T12:06:37,42.805,6.029,CST-1368DR,6619,9283,15220,0.103,551
2020-03-15T12:09:39,42.805,6.029,CST-1368DR,6619,9283,15220,0.103,551
2020-03-15T12:12:41,42.805,6.029,CST-1368DR,6619,9283,15220,0.103,551
2020-03-15T12:15:42,42.805,6.029,CST-1368DR,6619,9283,15220,0.103,551
2020-03-15T12:18:44,42.805,6.029,CST-1368DR,6619,9283,15220,0.103,551
2020-03-15T12:21:46,42.805,6.029,CST-1368DR,6619,9283,15220,0.103,551
2020-03-15T12:24:48,42.805,6.029,CST-1368DR,6619,9282,15219,0.103,551
2020-03-15T12:27:49,42.805,6.029,CST-1368DR,6619,9283,15220,0.103,551
2020-03-15T12:30:51,42.805,6.029,CST-1368DR,6619,9281,15216,0.104,551
2020-03-15T12:33:53,42.805,6.029,CST-1368DR,6619,9282,15218,0.103,551
2020-03-15T12:36:54,42.805,6.029,CST-1368DR,6619,9282,15219,0.103,551
2020-03-15T12:39:56,42.805,6.029,CST-1368DR,6619,9282,15218,0.103,550
2020-03-15T12:42:58,42.805,6.029,CST-1368DR,6619,9281,15217,0.104,551
2020-03-15T12:45:59,42.805,6.029,CST-1368DR,6619,9282,15219,0.103,551
2020-03-15T12:49:01,42.805,6.029,CST-1368DR,6619,9282,15219,0.103,551
2020-03-15T12:52:03,42.805,6.029,CST-1368DR,6619,9283,15219,0.103,551
2020-03-15T12:55:05,42.805,6.029,CST-1368DR,6619,9283,15219,0.103,551
2020-03-15T12:58:06,42.805,6.029,CST-1368DR,6619,9282,15218,0.103,551
2020-03-15T13:01:08,42.805,6.029,CST-1368DR,6619,9283,15220,0.103,551
2020-03-15T13:04:10,42.805,6.029,CST-1368DR,6619,9283,15219,0.103,551
2020-03-15T13:07:12,42.805,6.029,CST-1368DR,6619,9282,15217,0.104,551
2020-03-15T13:10:13,42.805,6.029,CST-1368DR,6619,9281,15217,0.104,551
2020-03-15T13:13:15,42.805,6.029,CST-1368DR,6619,9282,15219,0.103,550
2020-03-15T13:16:17,42.805,6.029,CST-1368DR,6619,9283,15219,0.103,551
2020-03-15T13:19:18,42.805,6.029,CST-1368DR,6619,9282,15218,0.103,551
2020-03-15T13:22:20,42.805,6.029,CST-1368DR,6619,9281,15216,0.104,551
2020-03-15T13:25:22,42.805,6.029,CST-1368DR,6619,9282,15219,0.103,551
2020-03-15T13:28:23,42.805,6.029,CST-1368DR,6619,9281,15217,0.104,551
2020-03-15T13:31:25,42.805,6.029,CST-1368DR,6619,9282,15218,0.103,551
2020-03-15T13:34:27,42.805,6.029,CST-1368DR,6619,9282,15219,0.103,551
2020-03-15T13:37:28,42.805,6.029,CST-1368DR,6619,9282,15218,0.103,551
2020-03-15T13:40:30,42.805,6.029,CST-1368DR,6619,9281,15217,0.104,551
2020-03-15T13:43:32,42.805,6.029,CST-1368DR,6619,9279,15213,0.105,551
2020-03-15T13:46:34,42.805,6.029,CST-1368DR,6619,9282,15217,0.104,551
2020-03-15T13:49:35,42.805,6.029,CST-1368DR,6619,9283,15220,0.103,551
2020-03-15T13:52:37,42.805,6.029,CST-1368DR,6619,9282,15219,0.103,551
2020-03-15T13:55:39,42.805,6.029,CST-1368DR,6619,9282,15219,0.103,551
2020-03-15T13:58:40,42.805,6.029,CST-1368DR,6619,9282,15218,0.103,551
2020-03-15T14:01:42,42.805,6.029,CST-1368DR,6619,9282,15218,0.103,551
2020-03-15T14:04:44,42.805,6.029,CST-1368DR,6619,9278,15212,0.105,551
2020-03-15T14:07:46,42.805,6.029,CST-1368DR,6619,9282,15218,0.103,551
2020-03-15T14:10:47,42.805,6.029,CST-1368DR,6619,9282,15217,0.104,551
2020-03-15T14:13:49,42.805,6.029,CST-1368DR,6619,9282,15218,0.103,551
2020-03-15T14:16:51,42.805,6.029,CST-1368DR,6619,9282,15217,0.104,550
2020-03-15T14:19:53,42.805,6.029,CST-1368DR,6619,9282,15218,0.103,551
2020-03-15T14:22:54,42.805,6.029,CST-1368DR,6619,9281,15217,0.104,551
2020-03-15T14:25:56,42.805,6.029,CST-1368DR,6619,9282,15218,0.103,551
2020-03-15T14:28:58,42.805,6.029,CST-1368DR,6619,9282,15218,0.103,551
2020-03-15T14:31:59,42.805,6.029,CST-1368DR,6619,9282,15217,0.104,551
2020-03-15T14:35:01,42.805,6.029,CST-1368DR,6619,9282,15217,0.104,551
2020-03-15T14:38:03,42.805,6.029,CST-1368DR,6619,9281,15217,0.104,551
2020-03-15T14:41:05,42.805,6.029,CST-1368DR,6619,9282,15217,0.104,551
2020-03-15T14:44:07,42.805,6.029,CST-1368DR,6619,9282,15219,0.103,551
2020-03-15T14:47:08,42.805,6.029,CST-1368DR,6619,9281,15216,0.104,551
2020-03-15T14:50:10,42.805,6.029,CST-1368DR,6619,9281,15216,0.104,551
2020-03-15T14:53:12,42.805,6.029,CST-1368DR,6619,9282,15218,0.103,551
2020-03-15T14:56:13,42.805,6.029,CST-1368DR,6619,9282,15217,0.104,551
2020-03-15T14:59:15,42.805,6.029,CST-1368DR,6619,9282,15218,0.103,551
2020-03-15T15:02:17,42.805,6.029,CST-1368DR,6619,9282,15218,0.103,551
2020-03-15T15:05:19,42.805,6.029,CST-1368DR,6619,9282,15218,0.103,551
2020-03-15T15:08:20,42.805,6.029,CST-1368DR,6619,9280,15215,0.104,551
2020-03-15T15:11:22,42.805,6.029,CST-1368DR,6619,9282,15218,0.103,551
2020-03-15T15:14:24,42.805,6.029,CST-1368DR,6619,9282,15218,0.103,551
2020-03-15T15:17:25,42.805,6.029,CST-1368DR,6619,9281,15217,0.104,551
2020-03-15T15:20:27,42.805,6.029,CST-1368DR,6618,9281,15219,0.103,551
2020-03-15T15:23:29,42.805,6.029,CST-1368DR,6619,9281,15217,0.104,551
2020-03-15T15:26:30,42.805,6.029,CST-1368DR,6619,9281,15217,0.104,551
2020-03-15T15:29:32,42.805,6.029,CST-1368DR,6619,9282,15218,0.103,551
2020-03-15T15:32:34,42.805,6.029,CST-1368DR,6619,9280,15215,0.104,551
2020-03-15T15:35:35,42.805,6.029,CST-1368DR,6619,9282,15218,0.103,551
2020-03-15T15:38:37,42.805,6.029,CST-1368DR,6619,9281,15217,0.104,551
2020-03-15T15:41:39,42.805,6.029,CST-1368DR,6619,9282,15217,0.104,551
2020-03-15T15:44:41,42.805,6.029,CST-1368DR,6619,9281,15217,0.104,551
2020-03-15T15:47:42,42.805,6.029,CST-1368DR,6618,9281,15219,0.103,551
2020-03-15T15:50:44,42.805,6.029,CST-1368DR,6618,9281,15219,0.103,550
2020-03-15T15:53:46,42.805,6.029,CST-1368DR,6618,9281,15219,0.103,551
2020-03-15T15:56:48,42.805,6.029,CST-1368DR,6618,9280,15218,0.103,551
2020-03-15T15:59:49,42.805,6.029,CST-1368DR,6618,9281,15219,0.103,550
2020-03-15T16:02:51,42.805,6.029,CST-1368DR,6618,9280,15217,0.104,551
2020-03-15T16:05:53,42.805,6.029,CST-1368DR,6618,9280,15217,0.104,551
2020-03-15T16:08:54,42.805,6.029,CST-1368DR,6618,9279,15215,0.104,550
2020-03-15T16:11:56,42.805,6.029,CST-1368DR,6618,9281,15218,0.103,551
2020-03-15T16:14:58,42.805,6.029,CST-1368DR,6618,9282,15220,0.103,551
2020-03-15T16:18:00,42.805,6.029,CST-1368DR,6618,9282,15220,0.103,551
2020-03-15T16:21:01,42.805,6.029,CST-1368DR,6618,9280,15217,0.104,551
2020-03-15T16:24:03,42.805,6.029,CST-1368DR,6618,9281,15219,0.103,551
2020-03-15T16:27:05,42.805,6.029,CST-1368DR,6618,9281,15219,0.103,551
2020-03-15T16:30:06,42.805,6.029,CST-1368DR,6618,9282,15220,0.103,551
2020-03-15T16:33:08,42.805,6.029,CST-1368DR,6618,9280,15217,0.104,551
2020-03-15T16:36:10,42.805,6.029,CST-1368DR,6618,9281,15219,0.103,551
2020-03-15T16:39:12,42.805,6.029,CST-1368DR,6618,9280,15218,0.103,551
2020-03-15T16:42:13,42.805,6.029,CST-1368DR,6618,9277,15212,0.105,551
2020-03-15T16:45:15,42.805,6.029,CST-1368DR,6618,9278,15213,0.105,551
2020-03-15T16:48:17,42.805,6.029,CST-1368DR,6618,9280,15217,0.104,551
2020-03-15T16:51:18,42.805,6.029,CST-1368DR,6618,9281,15219,0.103,551
2020-03-15T16:54:20,42.805,6.029,CST-1368DR,6618,9281,15219,0.103,551